Find Starlink 32865

NORAD ID: 62952 Int'l Des: 2025-029 Owner: SPXS Country: US Constellation: starlink operational
LEOCIRCULAR

Current View

Loading 3D Globe...

About Starlink 32865

Starlink 32865 (NORAD 62952) is a starlink constellation satellite (v2 mini) launched Feb 11, 2025 by SPXS of US. It operates in LEO, CIRCULAR orbit with a mass of 730.00 kg.

About Starlink 32865

Description loading...

Upcoming Passes

Passes for default location (London). Set your location on the main map for personalized predictions.

Altitude History

Loading altitude history...

Two-Line Element Set

1 62952U 25029E 26171.22180919 .00015255 00000-0 50201-3 0 9990
2 62952 53.1596 115.6446 0001230 95.8555 264.2586 15.31721433 77035
Epoch: Jun 20, 2026 • Age: 7 hours

Current Status

Altitude 470.9 km
Velocity 7.63 km/s
Sub-Earth Point 4.55°N, 163.01°W
Launch Date Feb 11, 2025
Age 1.3 years
Type internet

Technical Details

Classification Payload
Mass 730.00 kg
Dry Mass 700.00 kg
Total Mass 730.00 kg
Length 0.30 m
Diameter 4.10 m
Span 29.00 m
Shape Box + pan
Manufacturer SPXS
Bus Type Starlink V2M
Phase Status In Orbit
Owner/State SPXS/US

Most Searched